START_TIME,STEP,MOV.,M34,t_acc.,L5,t_acc.,L18,t_acc.,L14,t_acc.
1989-08-26T09:00:25.380 ,3,0,0.,12.0,0.,12.0,0.,12.0,0.,12.0
1989-08-26T09:00:37.380 ,3,0,0.,12.0,0.,12.0,0.,12.0,0.,12.0
1989-08-26T09:00:49.380 ,2,1,0.,12.0,0.,12.0,0.,12.0,0.,12.0
1989-08-26T09:01:01.380 ,2,1,0.,12.0,0.,12.0,0.,12.0,0.,12.0
1989-08-26T09:01:13.380 ,2,0,0.,12.0,0.,12.0,0.,12.0,0.,12.0
1989-08-26T09:01:25.380 ,2,0,0.,12.0,0.,12.0,0.,12.0,0.,12.0
1989-08-26T09:01:37.380 ,1,1,0.,12.0,0.,12.0,0.,12.0,0.,12.0
1989-08-26T09:01:49.380 ,1,1,0.,12.0,0.,12.0,0.,12.0,0.,12.0
1989-08-26T09:02:01.380 ,1,0,0.,12.0,1.,12.0,0.,12.0,0.,12.0
1989-08-26T09:02:13.380 ,1,0,0.,12.0,0.,12.0,0.,12.0,0.,12.0
1989-08-26T09:02:25.380 ,0,1,0.,12.0,0.,12.0,0.,12.0,0.,12.0
1989-08-26T09:02:37.380 ,0,1,0.,12.0,0.,12.0,0.,12.0,0.,12.0
1989-08-26T09:02:49.380 ,0,0,0.,12.0,0.,12.0,0.,12.0,0.,12.0
1989-08-26T09:03:01.380 ,0,0,0.,12.0,0.,12.0,0.,12.0,0.,12.0
1989-08-26T09:03:13.380 ,0,1,0.,12.0,0.,12.0,0.,12.0,0.,12.0
1989-08-26T09:03:25.380 ,0,1,0.,12.0,0.,12.0,0.,12.0,0.,12.0
1989-08-26T09:03:37.380 ,0,0,0.,12.0,0.,12.0,0.,12.0,0.,12.0
1989-08-26T09:03:49.380 ,0,0,0.,12.0,0.,12.0,0.,12.0,0.,12.0
1989-08-26T09:04:01.380 ,1,1,0.,12.0,0.,12.0,0.,12.0,0.,12.0
1989-08-26T09:04:13.380 ,1,1,0.,12.0,0.,12.0,0.,12.0,0.,12.0
1989-08-26T09:04:25.380 ,1,0,0.,12.0,0.,12.0,0.,12.0,0.,12.0
1989-08-26T09:04:37.380 ,1,0,0.,12.0,0.,12.0,0.,12.0,0.,12.0
1989-08-26T09:04:49.380 ,2,1,0.,12.0,0.,12.0,0.,12.0,0.,12.0
1989-08-26T09:05:01.380 ,2,1,0.,12.0,0.,12.0,0.,12.0,0.,12.0
1989-08-26T09:05:13.380 ,2,0,0.,12.0,0.,12.0,0.,12.0,0.,12.0
1989-08-26T09:05:25.380 ,2,0,0.,12.0,0.,12.0,0.,12.0,0.,12.0
1989-08-26T09:05:37.380 ,3,1,0.,12.0,0.,12.0,0.,12.0,0.,12.0
1989-08-26T09:05:49.380 ,3,1,0.,12.0,0.,12.0,0.,12.0,0.,12.0
1989-08-26T09:06:01.380 ,3,0,0.,12.0,0.,12.0,0.,12.0,0.,12.0
1989-08-26T09:06:13.380 ,3,0,0.,12.0,0.,12.0,0.,12.0,0.,12.0
1989-08-26T09:06:25.380 ,4,1,0.,12.0,0.,12.0,0.,12.0,0.,12.0
1989-08-26T09:06:37.380 ,4,1,0.,12.0,0.,12.0,0.,12.0,0.,12.0
1989-08-26T09:06:49.380 ,4,0,0.,12.0,0.,12.0,0.,12.0,0.,12.0
1989-08-26T09:07:01.380 ,4,0,0.,12.0,0.,12.0,0.,12.0,0.,12.0
1989-08-26T09:07:13.380 ,5,1,0.,12.0,0.,12.0,0.,12.0,0.,12.0
1989-08-26T09:07:25.380 ,5,1,0.,12.0,0.,12.0,0.,12.0,0.,12.0
1989-08-26T09:07:37.380 ,5,0,0.,12.0,0.,12.0,0.,12.0,0.,12.0
1989-08-26T09:07:49.380 ,5,0,0.,12.0,0.,12.0,0.,12.0,0.,12.0
1989-08-26T09:08:01.380 ,6,1,0.,12.0,0.,12.0,0.,12.0,0.,12.0
1989-08-26T09:08:13.380 ,6,1,0.,12.0,0.,12.0,0.,12.0,0.,12.0
1989-08-26T09:08:25.380 ,6,0,0.,12.0,0.,12.0,0.,12.0,0.,12.0
1989-08-26T09:08:37.380 ,6,0,0.,12.0,0.,12.0,0.,12.0,0.,12.0
1989-08-26T09:08:49.380 ,7,1,0.,12.0,0.,12.0,0.,12.0,0.,12.0
1989-08-26T09:09:01.380 ,7,1,0.,12.0,0.,12.0,0.,12.0,0.,12.0
1989-08-26T09:09:13.380 ,7,0,0.,12.0,0.,12.0,0.,12.0,0.,12.0
1989-08-26T09:09:25.380 ,7,0,0.,12.0,0.,12.0,0.,12.0,0.,12.0
1989-08-26T09:09:37.380 ,7,1,0.,12.0,0.,12.0,0.,12.0,0.,12.0
1989-08-26T09:09:49.380 ,7,1,0.,12.0,0.,12.0,0.,12.0,0.,12.0
1989-08-26T09:10:01.380 ,7,0,0.,12.0,0.,12.0,0.,12.0,0.,12.0
1989-08-26T09:10:13.380 ,7,0,0.,12.0,0.,12.0,0.,12.0,0.,12.0
1989-08-26T09:10:25.380 ,6,1,0.,12.0,0.,12.0,0.,12.0,0.,12.0
1989-08-26T09:10:37.380 ,6,1,0.,12.0,0.,12.0,0.,12.0,0.,12.0
1989-08-26T09:10:49.380 ,6,0,0.,12.0,0.,12.0,0.,12.0,0.,12.0
1989-08-26T09:11:01.380 ,6,0,0.,12.0,0.,12.0,0.,12.0,0.,12.0
1989-08-26T09:11:13.380 ,5,1,0.,12.0,0.,12.0,0.,12.0,0.,12.0
1989-08-26T09:11:25.380 ,5,1,0.,12.0,0.,12.0,0.,12.0,0.,12.0
1989-08-26T09:11:37.380 ,5,0,0.,12.0,0.,12.0,0.,12.0,0.,12.0
1989-08-26T09:11:49.380 ,5,0,0.,12.0,0.,12.0,0.,12.0,0.,12.0
1989-08-26T09:12:01.380 ,4,1,0.,12.0,0.,12.0,0.,12.0,0.,12.0
1989-08-26T09:12:13.380 ,4,1,0.,12.0,0.,12.0,0.,12.0,0.,12.0
1989-08-26T09:12:25.380 ,4,0,0.,12.0,0.,12.0,0.,12.0,0.,12.0
1989-08-26T09:12:37.380 ,4,0,0.,12.0,0.,12.0,0.,12.0,0.,12.0
1989-08-26T09:12:49.380 ,3,1,0.,12.0,0.,12.0,0.,12.0,0.,12.0
1989-08-26T09:13:01.380 ,3,1,0.,12.0,0.,12.0,0.,12.0,0.,12.0
1989-08-26T09:13:13.380 ,3,0,0.,12.0,0.,12.0,0.,12.0,0.,12.0
1989-08-26T09:13:25.380 ,3,0,0.,12.0,0.,12.0,0.,12.0,0.,12.0
1989-08-26T09:13:37.380 ,2,1,0.,12.0,0.,12.0,0.,12.0,0.,12.0
1989-08-26T09:13:49.380 ,2,1,0.,12.0,0.,12.0,0.,12.0,0.,12.0
1989-08-26T09:14:01.380 ,2,0,0.,12.0,0.,12.0,0.,12.0,0.,12.0
1989-08-26T09:14:13.380 ,2,0,0.,12.0,0.,12.0,0.,12.0,0.,12.0
1989-08-26T09:14:25.380 ,1,1,0.,12.0,0.,12.0,0.,12.0,0.,12.0
1989-08-26T09:14:37.380 ,1,1,0.,12.0,0.,12.0,0.,12.0,0.,12.0
1989-08-26T09:14:49.380 ,1,0,0.,12.0,0.,12.0,0.,12.0,0.,12.0
1989-08-26T09:15:01.380 ,1,0,0.,12.0,0.,12.0,0.,12.0,0.,12.0
1989-08-26T09:15:13.380 ,0,1,0.,12.0,0.,12.0,0.,12.0,0.,12.0
1989-08-26T09:15:25.380 ,0,1,0.,12.0,0.,12.0,0.,12.0,0.,12.0
1989-08-26T09:15:37.380 ,0,0,0.,12.0,0.,12.0,0.,12.0,0.,12.0
1989-08-26T09:15:49.380 ,0,0,0.,12.0,0.,12.0,0.,12.0,0.,12.0
1989-08-26T09:16:01.380 ,0,1,0.,12.0,0.,12.0,0.,12.0,0.,12.0
1989-08-26T09:16:13.380 ,0,1,0.,12.0,0.,12.0,0.,12.0,0.,12.0
1989-08-26T09:16:25.380 ,0,0,0.,12.0,0.,12.0,0.,12.0,0.,12.0
1989-08-26T09:16:37.380 ,0,0,0.,12.0,0.,12.0,0.,12.0,0.,12.0
1989-08-26T09:16:49.380 ,1,1,0.,12.0,0.,12.0,0.,12.0,0.,12.0
1989-08-26T09:17:01.380 ,1,1,0.,12.0,0.,12.0,0.,12.0,0.,12.0
1989-08-26T09:17:13.380 ,1,0,0.,12.0,0.,12.0,0.,12.0,0.,12.0
1989-08-26T09:17:25.380 ,1,0,0.,12.0,0.,12.0,0.,12.0,0.,12.0
1989-08-26T09:17:37.380 ,2,1,0.,12.0,0.,12.0,0.,12.0,0.,12.0
1989-08-26T09:17:49.380 ,2,1,0.,12.0,0.,12.0,0.,12.0,0.,12.0
1989-08-26T09:18:01.380 ,2,0,0.,12.0,0.,12.0,0.,12.0,0.,12.0
1989-08-26T09:18:13.380 ,2,0,0.,12.0,0.,12.0,0.,12.0,0.,12.0
1989-08-26T09:18:25.380 ,3,1,0.,12.0,0.,12.0,0.,12.0,0.,12.0
1989-08-26T09:18:37.380 ,3,1,0.,12.0,0.,12.0,0.,12.0,0.,12.0
1989-08-26T09:18:49.380 ,3,0,0.,12.0,0.,12.0,0.,12.0,0.,12.0
1989-08-26T09:19:01.380 ,3,0,0.,12.0,0.,12.0,0.,12.0,0.,12.0
1989-08-26T09:19:13.380 ,4,1,0.,12.0,0.,12.0,0.,12.0,0.,12.0
1989-08-26T09:19:25.380 ,4,1,0.,12.0,0.,12.0,0.,12.0,0.,12.0
1989-08-26T09:19:37.380 ,4,0,0.,12.0,0.,12.0,0.,12.0,0.,12.0
1989-08-26T09:19:49.380 ,4,0,0.,12.0,0.,12.0,0.,12.0,0.,12.0
1989-08-26T09:20:01.380 ,5,1,0.,12.0,0.,12.0,0.,12.0,0.,12.0
1989-08-26T09:20:13.380 ,5,1,0.,12.0,0.,12.0,0.,12.0,0.,12.0
1989-08-26T09:20:25.380 ,5,0,0.,12.0,0.,12.0,0.,12.0,0.,12.0
1989-08-26T09:20:37.380 ,5,0,0.,12.0,0.,12.0,0.,12.0,0.,12.0
1989-08-26T09:20:49.380 ,6,1,0.,12.0,0.,12.0,0.,12.0,0.,12.0
1989-08-26T09:21:01.380 ,6,1,0.,12.0,0.,12.0,0.,12.0,0.,12.0
1989-08-26T09:21:13.380 ,6,0,0.,12.0,0.,12.0,0.,12.0,0.,12.0
1989-08-26T09:21:25.380 ,6,0,0.,12.0,0.,12.0,0.,12.0,0.,12.0
1989-08-26T09:21:37.370 ,7,1,0.,12.0,0.,12.0,0.,12.0,0.,12.0
1989-08-26T09:21:49.370 ,7,1,0.,12.0,0.,12.0,0.,12.0,0.,12.0
1989-08-26T09:22:01.370 ,7,0,0.,12.0,0.,12.0,0.,12.0,0.,12.0
1989-08-26T09:22:13.370 ,7,0,0.,12.0,0.,12.0,0.,12.0,0.,12.0
1989-08-26T09:22:25.370 ,7,1,0.,12.0,0.,12.0,0.,12.0,0.,12.0
1989-08-26T09:22:37.370 ,7,1,0.,12.0,0.,12.0,0.,12.0,0.,12.0
1989-08-26T09:22:49.370 ,7,0,0.,12.0,0.,12.0,0.,12.0,0.,12.0
1989-08-26T09:23:01.370 ,7,0,0.,12.0,0.,12.0,0.,12.0,0.,12.0
1989-08-26T09:23:13.370 ,6,1,0.,12.0,0.,12.0,0.,12.0,0.,12.0
1989-08-26T09:23:25.370 ,6,1,0.,12.0,0.,12.0,0.,12.0,0.,12.0
1989-08-26T09:23:37.370 ,6,0,0.,12.0,0.,12.0,0.,12.0,0.,12.0
1989-08-26T09:23:49.370 ,6,0,0.,12.0,0.,12.0,0.,12.0,0.,12.0
1989-08-26T09:24:01.370 ,5,1,0.,12.0,0.,12.0,0.,12.0,0.,12.0
1989-08-26T09:24:13.370 ,5,1,0.,12.0,0.,12.0,0.,12.0,0.,12.0
1989-08-26T09:24:25.370 ,5,0,0.,12.0,0.,12.0,0.,12.0,0.,12.0
1989-08-26T09:24:37.370 ,5,0,0.,12.0,0.,12.0,0.,12.0,0.,12.0
1989-08-26T09:24:49.370 ,4,1,0.,12.0,0.,12.0,0.,12.0,0.,12.0
1989-08-26T09:25:01.370 ,4,1,0.,12.0,0.,12.0,0.,12.0,0.,12.0
1989-08-26T09:25:13.370 ,4,0,0.,12.0,0.,12.0,0.,12.0,0.,12.0
1989-08-26T09:25:25.370 ,4,0,0.,12.0,0.,12.0,0.,12.0,0.,12.0
1989-08-26T09:25:37.370 ,3,1,0.,12.0,0.,12.0,0.,12.0,0.,12.0
1989-08-26T09:25:49.370 ,3,1,0.,12.0,0.,12.0,0.,12.0,0.,12.0
1989-08-26T09:26:01.370 ,3,0,0.,12.0,0.,12.0,0.,12.0,0.,12.0
1989-08-26T09:26:13.370 ,3,0,0.,12.0,0.,12.0,0.,12.0,0.,12.0
1989-08-26T09:26:25.370 ,2,1,0.,12.0,0.,12.0,0.,12.0,0.,12.0
1989-08-26T09:26:37.370 ,2,1,0.,12.0,0.,12.0,0.,12.0,0.,12.0
1989-08-26T09:26:49.370 ,2,0,0.,12.0,0.,12.0,0.,12.0,0.,12.0
1989-08-26T09:27:01.370 ,2,0,0.,12.0,0.,12.0,0.,12.0,0.,12.0
1989-08-26T09:27:13.370 ,1,1,0.,12.0,0.,12.0,0.,12.0,0.,12.0
1989-08-26T09:27:25.370 ,1,1,0.,12.0,0.,12.0,0.,12.0,0.,12.0
1989-08-26T09:27:37.370 ,1,0,0.,12.0,1.,12.0,0.,12.0,0.,12.0
1989-08-26T09:27:49.370 ,1,0,0.,12.0,0.,12.0,0.,12.0,0.,12.0
1989-08-26T09:28:01.370 ,0,1,0.,12.0,0.,12.0,0.,12.0,0.,12.0
1989-08-26T09:28:13.370 ,0,1,0.,12.0,0.,12.0,0.,12.0,0.,12.0
1989-08-26T09:28:25.370 ,0,0,0.,12.0,0.,12.0,0.,12.0,0.,12.0
1989-08-26T09:28:37.370 ,0,0,0.,12.0,0.,12.0,0.,12.0,0.,12.0
1989-08-26T09:28:49.370 ,0,1,0.,12.0,0.,12.0,0.,12.0,0.,12.0
1989-08-26T09:29:01.370 ,0,1,0.,12.0,0.,12.0,0.,12.0,0.,12.0
1989-08-26T09:29:13.370 ,0,0,0.,12.0,0.,12.0,0.,12.0,0.,12.0
1989-08-26T09:29:25.370 ,0,0,0.,12.0,0.,12.0,0.,12.0,0.,12.0
1989-08-26T09:29:37.370 ,1,1,0.,12.0,0.,12.0,0.,12.0,0.,12.0
1989-08-26T09:29:49.370 ,1,1,0.,12.0,0.,12.0,0.,12.0,0.,12.0
1989-08-26T09:30:01.370 ,1,0,0.,12.0,0.,12.0,0.,12.0,0.,12.0
1989-08-26T09:30:13.370 ,1,0,0.,12.0,0.,12.0,0.,12.0,0.,12.0
1989-08-26T09:30:25.370 ,2,1,0.,12.0,0.,12.0,0.,12.0,0.,12.0
1989-08-26T09:30:37.370 ,2,1,0.,12.0,0.,12.0,0.,12.0,0.,12.0
1989-08-26T09:30:49.370 ,2,0,0.,12.0,0.,12.0,0.,12.0,0.,12.0
1989-08-26T09:31:01.370 ,2,0,0.,12.0,0.,12.0,0.,12.0,0.,12.0
1989-08-26T09:31:13.370 ,3,1,0.,12.0,0.,12.0,0.,12.0,0.,12.0
1989-08-26T09:31:25.370 ,3,1,0.,12.0,0.,12.0,0.,12.0,0.,12.0
1989-08-26T09:31:37.370 ,3,0,0.,12.0,0.,12.0,0.,12.0,0.,12.0
1989-08-26T09:31:49.370 ,3,0,0.,12.0,0.,12.0,0.,12.0,0.,12.0
1989-08-26T09:32:01.370 ,4,1,0.,12.0,0.,12.0,0.,12.0,0.,12.0
1989-08-26T09:32:13.370 ,4,1,0.,12.0,0.,12.0,0.,12.0,0.,12.0
1989-08-26T09:32:25.370 ,4,0,0.,12.0,0.,12.0,0.,12.0,0.,12.0
1989-08-26T09:32:37.370 ,4,0,0.,12.0,0.,12.0,0.,12.0,0.,12.0
1989-08-26T09:32:49.370 ,5,1,0.,12.0,0.,12.0,0.,12.0,0.,12.0
1989-08-26T09:33:01.370 ,5,1,0.,12.0,0.,12.0,0.,12.0,0.,12.0
1989-08-26T09:33:13.370 ,5,0,0.,12.0,0.,12.0,0.,12.0,0.,12.0
1989-08-26T09:33:25.370 ,5,0,0.,12.0,0.,12.0,0.,12.0,0.,12.0
1989-08-26T09:33:37.370 ,6,1,0.,12.0,0.,12.0,0.,12.0,0.,12.0
1989-08-26T09:33:49.370 ,6,1,0.,12.0,0.,12.0,0.,12.0,0.,12.0
1989-08-26T09:34:01.370 ,6,0,0.,12.0,0.,12.0,0.,12.0,0.,12.0
1989-08-26T09:34:13.370 ,6,0,0.,12.0,0.,12.0,0.,12.0,0.,12.0
1989-08-26T09:34:25.370 ,7,1,0.,12.0,0.,12.0,0.,12.0,0.,12.0
1989-08-26T09:34:37.370 ,7,1,0.,12.0,0.,12.0,0.,12.0,0.,12.0
1989-08-26T09:34:49.370 ,7,0,0.,12.0,0.,12.0,0.,12.0,0.,12.0
1989-08-26T09:35:01.370 ,7,0,0.,12.0,0.,12.0,0.,12.0,0.,12.0
1989-08-26T09:35:13.370 ,7,1,0.,12.0,0.,12.0,0.,12.0,0.,12.0
1989-08-26T09:35:25.370 ,7,1,0.,12.0,0.,12.0,0.,12.0,0.,12.0
1989-08-26T09:35:37.370 ,7,0,0.,12.0,0.,12.0,0.,12.0,0.,12.0
1989-08-26T09:35:49.370 ,7,0,0.,12.0,0.,12.0,0.,12.0,0.,12.0
1989-08-26T09:36:01.370 ,6,1,0.,12.0,0.,12.0,0.,12.0,0.,12.0
1989-08-26T09:36:13.370 ,6,1,0.,12.0,0.,12.0,0.,12.0,0.,12.0
1989-08-26T09:36:25.370 ,6,0,0.,12.0,0.,12.0,0.,12.0,0.,12.0
1989-08-26T09:36:37.370 ,6,0,0.,12.0,0.,12.0,0.,12.0,0.,12.0
1989-08-26T09:36:49.370 ,5,1,0.,12.0,0.,12.0,0.,12.0,0.,12.0
1989-08-26T09:37:01.370 ,5,1,0.,12.0,0.,12.0,0.,12.0,0.,12.0
1989-08-26T09:37:13.370 ,5,0,0.,12.0,0.,12.0,0.,12.0,0.,12.0
1989-08-26T09:37:25.370 ,5,0,0.,12.0,0.,12.0,0.,12.0,0.,12.0
1989-08-26T09:37:37.370 ,4,1,0.,12.0,0.,12.0,0.,12.0,0.,12.0
1989-08-26T09:37:49.370 ,4,1,0.,12.0,0.,12.0,0.,12.0,0.,12.0
1989-08-26T09:38:01.370 ,4,0,0.,12.0,0.,12.0,0.,12.0,0.,12.0
1989-08-26T09:38:13.370 ,4,0,0.,12.0,0.,12.0,0.,12.0,0.,12.0
1989-08-26T09:38:25.370 ,3,1,0.,12.0,0.,12.0,0.,12.0,0.,12.0
1989-08-26T09:38:37.370 ,3,1,0.,12.0,0.,12.0,0.,12.0,0.,12.0
1989-08-26T09:38:49.370 ,3,0,0.,12.0,0.,12.0,0.,12.0,0.,12.0
1989-08-26T09:39:01.370 ,3,0,0.,12.0,0.,12.0,0.,12.0,0.,12.0
1989-08-26T09:39:13.370 ,2,1,0.,12.0,0.,12.0,0.,12.0,0.,12.0
1989-08-26T09:39:25.370 ,2,1,0.,12.0,0.,12.0,0.,12.0,0.,12.0
1989-08-26T09:39:37.370 ,2,0,0.,12.0,0.,12.0,0.,12.0,0.,12.0
1989-08-26T09:39:49.370 ,2,0,0.,12.0,0.,12.0,0.,12.0,0.,12.0
1989-08-26T09:40:01.370 ,1,1,0.,12.0,0.,12.0,0.,12.0,0.,12.0
1989-08-26T09:40:13.370 ,1,1,0.,12.0,0.,12.0,0.,12.0,0.,12.0
1989-08-26T09:40:25.370 ,1,0,0.,12.0,0.,12.0,0.,12.0,0.,12.0
1989-08-26T09:40:37.370 ,1,0,0.,12.0,0.,12.0,0.,12.0,0.,12.0
1989-08-26T09:40:49.370 ,0,1,0.,12.0,0.,12.0,0.,12.0,0.,12.0
1989-08-26T09:41:01.370 ,0,1,0.,12.0,0.,12.0,0.,12.0,0.,12.0
1989-08-26T09:41:13.370 ,0,0,0.,12.0,0.,12.0,0.,12.0,0.,12.0
1989-08-26T09:41:25.370 ,0,0,0.,12.0,0.,12.0,0.,12.0,0.,12.0
1989-08-26T09:41:37.370 ,0,1,0.,12.0,0.,12.0,0.,12.0,0.,12.0
1989-08-26T09:41:49.370 ,0,1,0.,12.0,0.,12.0,0.,12.0,0.,12.0
1989-08-26T09:42:01.370 ,0,0,0.,12.0,0.,12.0,0.,12.0,0.,12.0
1989-08-26T09:42:13.370 ,0,0,0.,12.0,0.,12.0,0.,12.0,0.,12.0
1989-08-26T09:42:25.370 ,1,1,0.,12.0,0.,12.0,0.,12.0,0.,12.0
1989-08-26T09:42:37.370 ,1,1,0.,12.0,0.,12.0,0.,12.0,0.,12.0
1989-08-26T09:42:49.370 ,1,0,0.,12.0,0.,12.0,0.,12.0,0.,12.0
1989-08-26T09:43:01.370 ,1,0,0.,12.0,0.,12.0,0.,12.0,0.,12.0
1989-08-26T09:43:13.370 ,2,1,0.,12.0,0.,12.0,0.,12.0,0.,12.0
1989-08-26T09:43:25.370 ,2,1,0.,12.0,0.,12.0,0.,12.0,0.,12.0
1989-08-26T09:43:37.370 ,2,0,0.,12.0,0.,12.0,0.,12.0,0.,12.0
1989-08-26T09:43:49.370 ,2,0,0.,12.0,0.,12.0,0.,12.0,0.,12.0
1989-08-26T09:44:01.370 ,3,1,0.,12.0,0.,12.0,0.,12.0,0.,12.0
1989-08-26T09:44:13.370 ,3,1,0.,12.0,0.,12.0,0.,12.0,0.,12.0
1989-08-26T09:44:25.370 ,3,0,0.,12.0,0.,12.0,0.,12.0,0.,12.0
1989-08-26T09:44:37.370 ,3,0,0.,12.0,0.,12.0,0.,12.0,0.,12.0
1989-08-26T09:44:49.370 ,4,1,0.,12.0,0.,12.0,0.,12.0,0.,12.0
1989-08-26T09:45:01.370 ,4,1,0.,12.0,0.,12.0,0.,12.0,0.,12.0
1989-08-26T09:45:13.370 ,4,0,0.,12.0,0.,12.0,0.,12.0,0.,12.0
1989-08-26T09:45:25.370 ,4,0,0.,12.0,0.,12.0,0.,12.0,0.,12.0
1989-08-26T09:45:37.370 ,5,1,0.,12.0,0.,12.0,0.,12.0,0.,12.0
1989-08-26T09:45:49.370 ,5,1,0.,12.0,0.,12.0,0.,12.0,0.,12.0
1989-08-26T09:46:01.370 ,5,0,0.,12.0,1.,12.0,0.,12.0,0.,12.0
1989-08-26T09:46:13.370 ,5,0,0.,12.0,0.,12.0,0.,12.0,0.,12.0
1989-08-26T09:46:25.370 ,6,1,0.,12.0,0.,12.0,0.,12.0,0.,12.0
1989-08-26T09:46:37.370 ,6,1,0.,12.0,0.,12.0,0.,12.0,0.,12.0
1989-08-26T09:46:49.370 ,6,0,0.,12.0,0.,12.0,0.,12.0,0.,12.0
1989-08-26T09:47:01.370 ,6,0,0.,12.0,0.,12.0,0.,12.0,0.,12.0
1989-08-26T09:47:13.370 ,7,1,0.,12.0,0.,12.0,0.,12.0,0.,12.0
1989-08-26T09:47:25.370 ,7,1,0.,12.0,0.,12.0,0.,12.0,0.,12.0
1989-08-26T09:47:37.370 ,7,0,0.,12.0,0.,12.0,0.,12.0,0.,12.0
1989-08-26T09:47:49.370 ,7,0,0.,12.0,0.,12.0,0.,12.0,0.,12.0
1989-08-26T09:48:01.370 ,7,1,0.,12.0,0.,12.0,0.,12.0,0.,12.0
1989-08-26T09:48:13.370 ,7,1,0.,12.0,0.,12.0,0.,12.0,0.,12.0
1989-08-26T09:48:25.370 ,7,0,0.,12.0,0.,12.0,0.,12.0,0.,12.0
1989-08-26T09:48:37.370 ,7,0,0.,12.0,0.,12.0,0.,12.0,0.,12.0
1989-08-26T09:48:49.370 ,6,1,0.,12.0,0.,12.0,0.,12.0,0.,12.0
1989-08-26T09:49:01.370 ,6,1,0.,12.0,0.,12.0,0.,12.0,0.,12.0
1989-08-26T09:49:13.370 ,6,0,0.,12.0,0.,12.0,0.,12.0,0.,12.0
1989-08-26T09:49:25.370 ,6,0,0.,12.0,0.,12.0,0.,12.0,0.,12.0
1989-08-26T09:49:37.370 ,5,1,0.,12.0,0.,12.0,0.,12.0,0.,12.0
1989-08-26T09:49:49.370 ,5,1,0.,12.0,0.,12.0,0.,12.0,0.,12.0
1989-08-26T09:50:01.370 ,5,0,0.,12.0,0.,12.0,0.,12.0,0.,12.0
1989-08-26T09:50:13.370 ,5,0,0.,12.0,0.,12.0,0.,12.0,0.,12.0
1989-08-26T09:50:25.370 ,4,1,0.,12.0,0.,12.0,0.,12.0,0.,12.0
1989-08-26T09:50:37.370 ,4,1,0.,12.0,0.,12.0,0.,12.0,0.,12.0
1989-08-26T09:50:49.370 ,4,0,0.,12.0,0.,12.0,0.,12.0,0.,12.0
1989-08-26T09:51:01.370 ,4,0,0.,12.0,0.,12.0,0.,12.0,0.,12.0
1989-08-26T09:51:13.370 ,3,1,0.,12.0,0.,12.0,0.,12.0,0.,12.0
1989-08-26T09:51:25.370 ,3,1,0.,12.0,0.,12.0,0.,12.0,0.,12.0
1989-08-26T09:51:37.370 ,3,0,0.,12.0,0.,12.0,0.,12.0,0.,12.0
1989-08-26T09:51:49.370 ,3,0,0.,12.0,0.,12.0,0.,12.0,0.,12.0
1989-08-26T09:52:01.370 ,2,1,0.,12.0,0.,12.0,0.,12.0,0.,12.0
1989-08-26T09:52:13.370 ,2,1,0.,12.0,0.,12.0,0.,12.0,0.,12.0
1989-08-26T09:52:25.370 ,2,0,0.,12.0,0.,12.0,0.,12.0,0.,12.0
1989-08-26T09:52:37.370 ,2,0,0.,12.0,0.,12.0,0.,12.0,0.,12.0
1989-08-26T09:52:49.370 ,1,1,0.,12.0,0.,12.0,0.,12.0,0.,12.0
1989-08-26T09:53:01.370 ,1,1,0.,12.0,0.,12.0,0.,12.0,0.,12.0
1989-08-26T09:53:13.370 ,1,0,0.,12.0,0.,12.0,0.,12.0,0.,12.0
1989-08-26T09:53:25.370 ,1,0,0.,12.0,0.,12.0,0.,12.0,0.,12.0
1989-08-26T09:53:37.370 ,0,1,0.,12.0,0.,12.0,0.,12.0,0.,12.0
1989-08-26T09:53:49.370 ,0,1,0.,12.0,0.,12.0,0.,12.0,0.,12.0
1989-08-26T09:54:01.370 ,0,0,0.,12.0,0.,12.0,0.,12.0,0.,12.0
1989-08-26T09:54:13.370 ,0,0,0.,12.0,0.,12.0,0.,12.0,0.,12.0
1989-08-26T09:54:25.370 ,0,1,0.,12.0,0.,12.0,0.,12.0,0.,12.0
1989-08-26T09:54:37.370 ,0,1,0.,12.0,0.,12.0,0.,12.0,0.,12.0
1989-08-26T09:54:49.370 ,0,0,0.,12.0,0.,12.0,0.,12.0,0.,12.0
1989-08-26T09:55:01.370 ,0,0,0.,12.0,0.,12.0,0.,12.0,0.,12.0
1989-08-26T09:55:13.370 ,1,1,0.,12.0,0.,12.0,0.,12.0,0.,12.0
1989-08-26T09:55:25.370 ,1,1,0.,12.0,0.,12.0,0.,12.0,0.,12.0
1989-08-26T09:55:37.370 ,1,0,0.,12.0,0.,12.0,0.,12.0,0.,12.0
1989-08-26T09:55:49.370 ,1,0,0.,12.0,0.,12.0,0.,12.0,0.,12.0
1989-08-26T09:56:01.370 ,2,1,0.,12.0,0.,12.0,0.,12.0,0.,12.0
1989-08-26T09:56:13.370 ,2,1,0.,12.0,0.,12.0,0.,12.0,0.,12.0
1989-08-26T09:56:25.370 ,2,0,0.,12.0,0.,12.0,0.,12.0,0.,12.0
1989-08-26T09:56:37.370 ,2,0,0.,12.0,0.,12.0,0.,12.0,0.,12.0
1989-08-26T09:56:49.370 ,3,1,0.,12.0,0.,12.0,0.,12.0,0.,12.0
1989-08-26T09:57:01.370 ,3,1,0.,12.0,0.,12.0,0.,12.0,0.,12.0
1989-08-26T09:57:13.370 ,3,0,0.,12.0,0.,12.0,0.,12.0,0.,12.0
1989-08-26T09:57:25.370 ,3,0,0.,12.0,0.,12.0,0.,12.0,0.,12.0
1989-08-26T09:57:37.370 ,4,1,0.,12.0,0.,12.0,0.,12.0,0.,12.0
1989-08-26T09:57:49.370 ,4,1,0.,12.0,0.,12.0,0.,12.0,0.,12.0
1989-08-26T09:58:01.370 ,4,0,0.,12.0,0.,12.0,0.,12.0,0.,12.0
1989-08-26T09:58:13.370 ,4,0,0.,12.0,0.,12.0,0.,12.0,0.,12.0
1989-08-26T09:58:25.370 ,5,1,0.,12.0,0.,12.0,0.,12.0,0.,12.0
1989-08-26T09:58:37.370 ,5,1,0.,12.0,0.,12.0,0.,12.0,0.,12.0
1989-08-26T09:58:49.370 ,5,0,0.,12.0,0.,12.0,0.,12.0,0.,12.0
1989-08-26T09:59:01.370 ,5,0,0.,12.0,0.,12.0,0.,12.0,0.,12.0
1989-08-26T09:59:13.370 ,6,1,0.,12.0,0.,12.0,0.,12.0,0.,12.0
1989-08-26T09:59:25.370 ,6,1,0.,12.0,0.,12.0,0.,12.0,0.,12.0
1989-08-26T09:59:37.370 ,6,0,0.,12.0,0.,12.0,0.,12.0,0.,12.0
1989-08-26T09:59:49.370 ,6,0,0.,12.0,0.,12.0,0.,12.0,0.,12.0
1989-08-26T10:00:01.370 ,7,1,0.,12.0,0.,12.0,0.,12.0,0.,12.0
1989-08-26T10:00:13.370 ,7,1,0.,12.0,0.,12.0,0.,12.0,0.,12.0
1989-08-26T10:00:25.370 ,7,0,0.,12.0,0.,12.0,0.,12.0,0.,12.0
1989-08-26T10:00:37.370 ,7,0,0.,12.0,0.,12.0,0.,12.0,0.,12.0
1989-08-26T10:00:49.370 ,7,1,0.,12.0,0.,12.0,0.,12.0,0.,12.0
1989-08-26T10:01:01.370 ,7,1,0.,12.0,0.,12.0,0.,12.0,0.,12.0
1989-08-26T10:01:13.370 ,7,0,0.,12.0,0.,12.0,0.,12.0,0.,12.0
1989-08-26T10:01:25.370 ,7,0,0.,12.0,0.,12.0,0.,12.0,0.,12.0
1989-08-26T10:01:37.370 ,6,1,0.,12.0,0.,12.0,0.,12.0,0.,12.0
1989-08-26T10:01:49.370 ,6,1,0.,12.0,0.,12.0,0.,12.0,0.,12.0
1989-08-26T10:02:01.370 ,6,0,0.,12.0,0.,12.0,0.,12.0,0.,12.0
1989-08-26T10:02:13.370 ,6,0,0.,12.0,0.,12.0,0.,12.0,0.,12.0
1989-08-26T10:02:25.370 ,5,1,0.,12.0,0.,12.0,0.,12.0,0.,12.0
1989-08-26T10:02:37.370 ,5,1,0.,12.0,0.,12.0,0.,12.0,0.,12.0
1989-08-26T10:02:49.370 ,5,0,0.,12.0,0.,12.0,0.,12.0,0.,12.0
1989-08-26T10:03:01.370 ,5,0,0.,12.0,0.,12.0,0.,12.0,0.,12.0
1989-08-26T10:03:13.370 ,4,1,0.,12.0,0.,12.0,0.,12.0,0.,12.0
1989-08-26T10:03:25.370 ,4,1,0.,12.0,0.,12.0,0.,12.0,0.,12.0
1989-08-26T10:03:37.370 ,4,0,0.,12.0,0.,12.0,0.,12.0,0.,12.0
1989-08-26T10:03:49.370 ,4,0,0.,12.0,0.,12.0,0.,12.0,0.,12.0
1989-08-26T10:04:01.370 ,3,1,0.,12.0,0.,12.0,0.,12.0,0.,12.0
1989-08-26T10:04:13.370 ,3,1,0.,12.0,0.,12.0,0.,12.0,0.,12.0
1989-08-26T10:04:25.370 ,3,0,0.,12.0,0.,12.0,0.,12.0,0.,12.0
1989-08-26T10:04:37.370 ,3,0,0.,12.0,0.,12.0,0.,12.0,0.,12.0
1989-08-26T10:04:49.370 ,2,1,0.,12.0,0.,12.0,0.,12.0,0.,12.0
1989-08-26T10:05:01.370 ,2,1,0.,12.0,0.,12.0,0.,12.0,0.,12.0
1989-08-26T10:05:13.370 ,2,0,0.,12.0,0.,12.0,0.,12.0,0.,12.0
1989-08-26T10:05:25.370 ,2,0,0.,12.0,0.,12.0,0.,12.0,0.,12.0
1989-08-26T10:05:37.370 ,1,1,0.,12.0,0.,12.0,0.,12.0,0.,12.0
1989-08-26T10:05:49.370 ,1,1,0.,12.0,0.,12.0,0.,12.0,0.,12.0
1989-08-26T10:06:01.370 ,0,0,0.,12.0,0.,12.0,0.,12.0,0.,12.0
1989-08-26T10:06:13.370 ,0,0,0.,12.0,0.,12.0,0.,12.0,0.,12.0
1989-08-26T10:07:03.770 ,0,0,,0,,0,,0,,0
1989-08-26T10:07:15.770 ,0,0,,0,,0,,0,,0
1989-08-26T10:07:13.370 ,0,1,0.,12.0,0.,12.0,0.,12.0,0.,12.0
1989-08-26T10:07:25.370 ,0,1,0.,12.0,0.,12.0,0.,12.0,0.,12.0
1989-08-26T10:07:37.370 ,0,0,0.,12.0,0.,12.0,0.,12.0,0.,12.0
1989-08-26T10:07:49.370 ,0,0,0.,12.0,0.,12.0,0.,12.0,0.,12.0
1989-08-26T10:08:01.370 ,1,1,0.,12.0,0.,12.0,0.,12.0,0.,12.0
1989-08-26T10:08:13.370 ,1,1,0.,12.0,0.,12.0,0.,12.0,0.,12.0
1989-08-26T10:08:25.370 ,1,0,0.,12.0,0.,12.0,0.,12.0,0.,12.0
1989-08-26T10:08:37.370 ,1,0,0.,12.0,0.,12.0,0.,12.0,0.,12.0
1989-08-26T10:08:49.370 ,2,1,0.,12.0,0.,12.0,0.,12.0,0.,12.0
1989-08-26T10:09:01.370 ,2,1,0.,12.0,0.,12.0,0.,12.0,0.,12.0
1989-08-26T10:09:13.370 ,2,0,0.,12.0,0.,12.0,0.,12.0,0.,12.0
1989-08-26T10:09:25.370 ,2,0,0.,12.0,0.,12.0,0.,12.0,0.,12.0
1989-08-26T10:09:37.370 ,3,1,0.,12.0,0.,12.0,0.,12.0,0.,12.0
1989-08-26T10:09:49.370 ,3,1,0.,12.0,0.,12.0,0.,12.0,0.,12.0
1989-08-26T10:10:01.370 ,3,0,0.,12.0,0.,12.0,0.,12.0,0.,12.0
1989-08-26T10:10:13.370 ,3,0,0.,12.0,0.,12.0,0.,12.0,0.,12.0
1989-08-26T10:10:25.370 ,4,1,0.,12.0,0.,12.0,0.,12.0,0.,12.0
1989-08-26T10:10:37.370 ,4,1,0.,12.0,0.,12.0,0.,12.0,0.,12.0
1989-08-26T10:10:49.370 ,4,0,0.,12.0,0.,12.0,0.,12.0,0.,12.0
1989-08-26T10:11:01.370 ,4,0,0.,12.0,0.,12.0,0.,12.0,0.,12.0
1989-08-26T10:11:13.370 ,5,1,0.,12.0,0.,12.0,0.,12.0,0.,12.0
1989-08-26T10:11:25.370 ,5,1,0.,12.0,0.,12.0,0.,12.0,0.,12.0
1989-08-26T10:11:37.370 ,5,0,0.,12.0,0.,12.0,0.,12.0,0.,12.0
1989-08-26T10:11:49.370 ,5,0,0.,12.0,0.,12.0,0.,12.0,0.,12.0
1989-08-26T10:12:01.370 ,6,1,0.,12.0,0.,12.0,0.,12.0,0.,12.0
1989-08-26T10:12:13.370 ,6,1,0.,12.0,0.,12.0,0.,12.0,0.,12.0
1989-08-26T10:12:25.370 ,6,0,0.,12.0,0.,12.0,0.,12.0,0.,12.0
1989-08-26T10:12:37.370 ,6,0,0.,12.0,0.,12.0,0.,12.0,0.,12.0
1989-08-26T10:12:49.370 ,7,1,0.,12.0,0.,12.0,0.,12.0,0.,12.0
1989-08-26T10:13:01.370 ,7,1,0.,12.0,0.,12.0,0.,12.0,0.,12.0
1989-08-26T10:13:13.370 ,7,0,0.,12.0,0.,12.0,0.,12.0,0.,12.0
1989-08-26T10:13:25.370 ,7,0,0.,12.0,0.,12.0,0.,12.0,0.,12.0
1989-08-26T10:13:37.370 ,7,1,0.,12.0,0.,12.0,0.,12.0,0.,12.0
1989-08-26T10:13:49.370 ,7,1,0.,12.0,0.,12.0,0.,12.0,0.,12.0
1989-08-26T10:14:01.370 ,7,0,0.,12.0,0.,12.0,0.,12.0,0.,12.0
1989-08-26T10:14:13.370 ,7,0,0.,12.0,0.,12.0,0.,12.0,0.,12.0
1989-08-26T10:14:25.370 ,6,1,0.,12.0,0.,12.0,0.,12.0,0.,12.0
1989-08-26T10:14:37.370 ,6,1,0.,12.0,0.,12.0,0.,12.0,0.,12.0
1989-08-26T10:14:49.370 ,6,0,0.,12.0,0.,12.0,0.,12.0,0.,12.0
1989-08-26T10:15:01.370 ,6,0,0.,12.0,0.,12.0,0.,12.0,0.,12.0
1989-08-26T10:15:13.370 ,5,1,0.,12.0,0.,12.0,0.,12.0,0.,12.0
1989-08-26T10:15:25.370 ,5,1,0.,12.0,0.,12.0,0.,12.0,0.,12.0
1989-08-26T10:15:37.370 ,5,0,0.,12.0,0.,12.0,0.,12.0,0.,12.0
1989-08-26T10:15:49.370 ,5,0,0.,12.0,0.,12.0,0.,12.0,0.,12.0
1989-08-26T10:16:01.370 ,4,1,0.,12.0,0.,12.0,0.,12.0,0.,12.0
1989-08-26T10:16:13.370 ,4,1,0.,12.0,0.,12.0,0.,12.0,0.,12.0
1989-08-26T10:16:25.370 ,4,0,0.,12.0,0.,12.0,0.,12.0,0.,12.0
1989-08-26T10:16:37.370 ,4,0,0.,12.0,0.,12.0,0.,12.0,0.,12.0
1989-08-26T10:16:49.370 ,3,1,0.,12.0,0.,12.0,0.,12.0,0.,12.0
1989-08-26T10:17:01.370 ,3,1,0.,12.0,0.,12.0,0.,12.0,0.,12.0
1989-08-26T10:17:13.370 ,3,0,0.,12.0,0.,12.0,0.,12.0,0.,12.0
1989-08-26T10:17:25.370 ,3,0,0.,12.0,0.,12.0,0.,12.0,0.,12.0
1989-08-26T10:17:37.370 ,2,1,0.,12.0,0.,12.0,0.,12.0,0.,12.0
1989-08-26T10:17:49.370 ,2,1,0.,12.0,0.,12.0,0.,12.0,0.,12.0